Wind_Speed
32 31 30 29 29 29 28 27 25 23 23 23 23 23 21 20 20 19 18 18 17 16 16 16 16 16 16 15 15 15 15 15 15 14 13 13 12 12 12 12 12 12 12 13
31 31 31 30 30 29 28 27 26 25 23 23 23 23 22 21 20 20 20 20 19 18 17 16 16 17 17 17 17 16 16 15 15 15 14 14 14 14 14 13 13 13 13 13
29 30 30 31 30 29 28 27 26 25 24 24 23 22 22 22 22 21 20 20 19 19 18 18 18 17 18 18 18 18 17 17 17 16 16 15 15 15 15 15 15 14 15 15
28 29 29 30 30 29 28 27 26 26 25 25 24 24 23 23 23 22 21 21 21 20 20 19 19 19 19 19 19 19 19 18 18 17 17 16 16 16 16 16 16 16 16 16
29 29 30 31 30 28 28 27 27 26 26 25 24 24 24 24 24 24 23 22 22 21 21 20 20 20 20 20 20 20 20 19 19 19 18 17 17 17 17 16 16 17 17 17
30 29 29 30 29 28 28 28 27 26 25 25 24 24 24 24 24 24 23 23 22 22 22 22 22 22 22 22 21 20 20 20 20 19 19 18 18 18 18 17 17 17 17 17
30 29 29 29 29 28 28 28 27 26 26 25 25 25 24 24 25 25 23 22 22 22 23 23 23 23 23 22 21 21 21 21 20 20 20 20 19 19 18 18 18 18 18 19
29 28 29 30 29 29 28 27 27 27 26 26 26 26 25 24 24 24 23 23 23 24 24 24 24 24 24 23 22 22 22 22 21 21 21 21 20 19 19 19 19 19 19 20
31 31 30 29 28 28 28 28 28 27 27 27 27 26 26 25 25 24 24 24 24 24 24 24 24 24 24 23 23 23 23 23 22 22 22 22 21 20 20 20 20 20 21 21
32 32 31 30 30 29 29 29 28 28 28 27 27 27 27 27 27 26 26 25 25 24 24 25 24 23 23 23 23 23 23 23 23 23 22 22 22 21 22 22 22 22 22 22
32 32 32 32 31 31 30 30 30 29 29 28 28 27 27 28 28 28 27 26 25 25 26 26 26 25 26 25 25 24 23 23 23 23 22 22 22 22 23 23 23 23 23 23
33 32 32 32 32 32 32 31 31 31 31 30 30 29 29 29 28 29 29 28 27 27 27 26 27 27 27 27 25 24 24 24 24 23 23 23 23 24 24 24 24 24 24 24
32 32 32 32 32 32 32 32 31 31 32 32 31 31 31 30 30 29 29 30 29 28 28 28 28 28 28 28 27 26 25 25 25 24 24 24 24 24 24 24 24 24 24 24
32 32 32 32 32 32 32 33 32 32 32 32 32 32 32 31 31 31 31 30 30 30 30 30 29 29 28 28 27 27 27 26 26 25 25 25 25 24 24 24 24 24 24 25
31 31 31 31 32 32 32 32 32 32 32 32 32 33 33 33 32 32 32 32 32 32 32 32 30 29 28 28 27 27 27 26 26 25 25 25 25 25 25 24 24 25 25 26
31 31 31 32 32 32 32 32 33 33 33 33 33 33 34 34 34 33 33 33 33 33 32 32 31 29 29 28 28 27 27 26 26 25 25 25 25 25 25 24 24 25 25 25
31 31 31 32 32 32 32 32 33 33 33 33 33 33 34 34 34 33 33 33 34 33 32 31 30 30 29 28 28 28 27 27 26 26 25 25 25 25 25 25 24 24 25 25
30 31 31 31 32 32 32 32 32 32 33 32 32 32 33 34 34 34 33 34 34 33 32 32 31 30 30 29 29 29 28 28 27 26 26 26 26 26 26 25 25 25 26 26
29 30 30 30 31 32 32 32 32 33 33 33 33 33 33 33 34 34 33 33 33 33 33 32 32 32 31 30 29 29 28 28 28 27 27 26 26 26 26 26 26 26 26 26
30 29 29 29 30 30 31 32 32 33 32 32 32 32 33 33 34 34 34 33 33 33 33 33 33 32 31 30 29 28 28 28 27 27 27 26 26 26 26 27 27 27 27 27
27 28 28 27 27 28 28 29 29 30 30 29 30 30 31 32 32 32 32 32 31 32 32 32 32 32 31 30 30 29 29 28 27 26 26 26 26 26 26 26 27 27 27 27
25 26 26 26 26 26 27 27 27 28 28 28 29 29 29 30 30 30 31 31 30 31 32 32 31 31 31 30 29 28 28 27 27 26 26 26 26 26 26 26 26 27 27 27
24 24 24 25 25 26 26 26 26 27 27 27 28 28 28 27 27 28 28 28 29 30 30 30 30 29 30 30 29 29 28 27 26 26 26 26 26 26 26 26 27 27 27 27
23 24 24 24 25 25 26 26 26 27 27 26 27 27 27 27 27 27 27 27 27 28 28 28 28 28 28 28 28 28 27 27 26 26 26 26 26 26 26 27 27 28 28 29
22 22 22 23 24 24 24 24 25 26 26 26 26 26 26 26 26 26 26 27 27 27 27 26 26 26 26 26 26 26 26 25 25 25 26 26 26 27 27 27 28 28 28 29
20 21 21 21 22 23 23 23 23 24 24 24 24 24 25 25 26 26 25 26 26 26 26 25 25 24 24 24 24 24 24 25 25 25 26 26 27 27 27 27 28 28 29 29
19 20 20 20 20 20 20 20 21 21 22 22 23 24 24 24 24 24 23 23 23 23 23 23 23 23 23 23 23 23 23 24 24 25 25 26 26 27 27 28 28 28 29 29
Wind_Direction
226 229 231 232 233 234 235 236 238 239 239 241 245 245 245 246 246 247 250 254 260 264 263 266 269 273 276 278 281 284 287 289 290 291 291 291 288 289 290 289 287 289 291 294
227 230 231 231 232 233 234 235 236 237 238 240 242 242 243 245 245 246 250 253 257 260 260 263 267 271 275 278 279 281 285 287 288 287 287 287 285 286 287 287 286 286 287 291
226 228 230 231 231 232 235 236 236 237 238 240 239 240 242 243 244 246 247 249 253 255 258 262 266 268 271 275 277 280 284 284 284 284 285 284 285 286 287 285 283 283 283 285
225 227 228 230 230 231 234 235 235 236 237 239 239 240 241 242 243 245 246 247 251 254 257 260 263 264 267 271 273 277 280 280 282 284 285 284 284 287 288 287 284 283 283 284
224 228 230 232 231 231 233 235 235 236 237 238 239 241 242 243 243 245 247 247 250 253 257 259 260 262 264 268 270 273 276 278 281 282 282 282 283 286 288 287 284 284 287 287
226 227 230 233 232 231 232 235 235 236 237 238 239 241 242 242 244 245 246 248 250 253 255 257 259 261 264 266 268 271 274 277 279 280 280 280 281 283 286 285 283 284 287 288
226 228 231 232 231 230 232 234 235 236 237 238 239 239 239 240 241 243 246 247 249 253 256 258 259 262 265 266 268 270 272 273 277 278 279 280 279 279 281 283 281 283 287 289
225 228 231 233 233 232 233 234 235 235 236 238 238 239 238 239 240 242 247 250 251 254 257 260 260 263 264 266 269 270 271 272 275 278 279 279 279 277 279 281 281 283 286 287
227 229 232 234 235 236 235 235 235 235 236 237 238 239 239 240 241 243 246 249 251 255 258 259 261 262 262 265 268 270 270 272 274 276 277 277 277 277 277 279 281 282 284 285
230 232 233 234 236 236 236 237 237 238 238 237 237 237 237 238 240 244 246 248 251 255 257 258 260 262 264 266 268 269 272 273 274 273 274 274 275 275 277 278 280 282 283 284
232 234 235 236 237 238 238 238 239 239 239 238 237 237 237 239 241 243 245 249 251 254 256 257 260 263 265 267 268 270 272 272 273 272 273 275 276 277 278 279 279 280 282 283
234 236 238 238 238 239 239 239 239 240 240 238 238 240 240 242 244 246 247 250 253 255 257 259 261 262 263 265 268 270 271 272 272 272 273 275 277 277 278 278 278 278 279 281
237 238 239 239 239 239 239 239 239 240 239 239 239 241 243 245 247 249 250 252 255 256 259 261 263 264 264 265 267 270 272 273 272 272 273 275 276 278 277 277 278 279 278 279
238 238 238 238 239 239 239 240 240 240 240 241 240 240 242 244 246 249 251 253 254 256 258 260 262 263 264 265 266 269 271 272 271 272 274 274 275 278 279 279 280 280 280 281
237 237 238 238 239 240 240 240 240 241 241 241 241 241 242 243 246 249 251 253 255 256 257 259 259 260 261 264 265 267 268 269 270 271 273 275 276 277 278 279 279 280 281 283
237 238 238 238 238 239 240 240 240 241 241 242 242 243 243 244 245 248 250 252 254 254 255 255 256 257 258 261 263 265 266 266 267 269 271 273 274 275 276 277 278 280 282 284
236 237 238 238 239 240 240 241 241 241 241 242 242 243 243 244 246 247 250 252 252 252 252 252 252 254 257 259 262 262 263 264 265 268 269 270 271 273 274 276 279 281 282 284
237 238 238 239 239 240 240 241 242 242 243 242 243 243 243 244 246 247 250 251 251 250 251 251 252 254 256 259 260 261 261 262 263 265 266 267 269 272 273 276 278 280 282 284
239 239 239 240 240 240 240 241 242 243 243 243 244 244 245 245 246 247 248 249 248 248 249 251 252 254 255 257 258 259 260 261 262 262 263 265 268 270 273 275 278 280 281 283
241 240 240 240 240 240 240 240 242 242 242 243 244 245 246 246 246 247 247 248 249 249 250 252 251 252 254 255 256 259 260 262 261 261 263 265 267 269 271 274 277 279 281 283
238 238 240 240 241 240 240 240 240 240 240 243 246 247 246 246 246 247 247 247 248 249 250 252 252 252 254 256 256 258 259 259 259 261 263 265 267 269 271 274 277 279 281 283
235 236 237 238 240 240 240 242 243 243 243 244 244 245 245 245 246 245 245 246 247 249 250 251 252 252 254 254 254 255 255 256 258 260 261 264 267 269 271 273 276 279 282 283
237 238 239 240 241 241 242 243 245 245 245 244 244 244 245 245 245 245 245 245 246 248 249 250 252 253 253 252 252 253 254 255 257 258 261 265 267 269 271 273 275 278 281 283
237 238 240 242 242 242 244 245 245 245 245 245 244 243 244 244 244 244 245 245 247 249 250 251 252 253 253 252 252 253 254 254 257 259 262 265 267 269 271 273 275 278 281 283
238 238 239 240 240 241 243 245 243 243 243 243 242 241 243 243 242 244 245 245 246 249 250 251 251 251 251 251 251 252 253 254 257 260 263 265 267 269 271 273 275 278 280 282
239 239 240 239 239 239 240 242 243 242 242 241 240 241 243 242 241 241 243 244 246 249 249 249 250 251 251 250 250 251 252 254 257 260 263 266 269 271 272 273 274 276 279 281
240 241 240 240 239 240 240 240 240 239 239 239 238 239 240 240 241 241 241 243 245 248 248 248 248 248 248 249 251 252 253 256 259 262 265 267 268 270 272 273 275 277 278 280
Height
5852 5855 5860 5863 5867 5871 5874 5878 5882 5884 5886 5888 5889 5892 5894 5895 5897 5898 5899 5900 5901 5901 5902 5902 5902 5902 5902 5901 5901 5900 5899 5898 5897 5896 5895 5893 5892 5891 5890 5890 5889 5889 5888 5887
5846 5849 5853 5857 5860 5864 5868 5871 5874 5877 5880 5882 5883 5886 5888 5890 5892 5893 5895 5896 5897 5897 5897 5898 5898 5898 5898 5897 5897 5896 5895 5894 5893 5893 5892 5890 5889 5889 5888 5887 5886 5886 5885 5884
5840 5843 5846 5851 5854 5858 5861 5865 5868 5871 5874 5875 5878 5880 5882 5884 5886 5888 5889 5891 5892 5892 5893 5893 5893 5894 5893 5893 5893 5892 5892 5891 5890 5889 5888 5887 5886 5885 5884 5883 5883 5882 5881 5881
5834 5837 5841 5846 5848 5852 5855 5858 5862 5865 5867 5869 5872 5874 5876 5878 5881 5882 5884 5885 5886 5887 5887 5888 5889 5889 5889 5889 5888 5888 5887 5887 5886 5885 5884 5884 5883 5882 5880 5879 5879 5878 5877 5876
5828 5831 5835 5838 5842 5845 5849 5852 5855 5858 5861 5863 5866 5868 5870 5872 5874 5876 5878 5879 5881 5882 5882 5883 5883 5884 5884 5884 5883 5883 5882 5882 5881 5881 5880 5879 5878 5877 5876 5875 5874 5874 5873 5872
5821 5825 5829 5832 5835 5839 5843 5845 5849 5852 5854 5857 5859 5862 5864 5866 5868 5870 5871 5873 5875 5876 5877 5877 5877 5877 5877 5877 5877 5877 5877 5877 5876 5876 5875 5874 5874 5873 5872 5871 5870 5869 5868 5867
5814 5818 5822 5825 5828 5833 5838 5840 5843 5845 5848 5850 5853 5856 5858 5859 5861 5863 5864 5866 5868 5870 5870 5871 5871 5871 5871 5871 5871 5871 5871 5871 5871 5870 5870 5869 5868 5868 5867 5866 5865 5865 5864 5863
5807 5812 5817 5818 5821 5826 5829 5832 5835 5838 5840 5843 5846 5848 5850 5853 5855 5857 5858 5859 5861 5863 5864 5864 5864 5865 5865 5865 5864 5865 5866 5866 5865 5865 5864 5863 5862 5862 5861 5861 5860 5860 5859 5858
5801 5806 5808 5811 5814 5818 5822 5825 5827 5830 5833 5836 5838 5841 5844 5846 5848 5850 5852 5854 5855 5856 5857 5857 5857 5858 5858 5859 5859 5859 5859 5859 5859 5858 5858 5857 5857 5856 5856 5855 5855 5854 5853 5853
5793 5796 5800 5803 5807 5810 5814 5817 5820 5823 5826 5828 5831 5834 5836 5839 5841 5843 5845 5847 5848 5849 5850 5851 5851 5852 5852 5852 5852 5853 5853 5852 5852 5852 5852 5851 5851 5850 5850 5849 5849 5848 5847 5846
5785 5789 5792 5795 5799 5802 5806 5809 5812 5815 5818 5821 5824 5826 5829 5832 5834 5836 5837 5839 5841 5842 5842 5843 5844 5845 5845 5845 5845 5845 5845 5845 5845 5845 5845 5845 5844 5844 5843 5843 5842 5842 5841 5840
5778 5781 5785 5788 5791 5794 5797 5800 5804 5807 5810 5813 5816 5819 5821 5824 5826 5828 5830 5831 5833 5834 5835 5836 5837 5837 5838 5838 5838 5838 5838 5838 5838 5838 5838 5838 5837 5837 5836 5836 5835 5835 5834 5834
5769 5773 5776 5779 5782 5786 5789 5792 5795 5798 5802 5805 5808 5810 5813 5816 5818 5820 5822 5823 5824 5826 5827 5828 5829 5829 5830 5830 5830 5831 5831 5831 5831 5831 5831 5831 5830 5830 5829 5829 5828 5828 5827 5826
5760 5764 5767 5771 5774 5777 5780 5783 5786 5790 5793 5796 5799 5802 5804 5807 5809 5811 5813 5814 5816 5817 5818 5819 5820 5821 5822 5822 5823 5823 5823 5823 5824 5824 5824 5824 5823 5823 5822 5822 5821 5820 5820 5819
5752 5755 5759 5762 5765 5768 5771 5774 5778 5781 5784 5787 5790 5793 5795 5798 5800 5802 5804 5805 5807 5808 5810 5811 5812 5813 5813 5814 5815 5815 5816 5816 5817 5817 5817 5816 5816 5816 5815 5815 5814 5813 5812 5811
5743 5746 5750 5753 5756 5760 5762 5765 5769 5772 5775 5778 5780 5783 5786 5788 5791 5793 5794 5796 5797 5799 5800 5802 5803 5804 5805 5806 5807 5807 5808 5809 5809 5809 5809 5809 5809 5808 5808 5807 5807 5806 5805 5804
5734 5738 5741 5744 5747 5751 5753 5756 5759 5762 5765 5768 5771 5773 5776 5778 5781 5783 5785 5786 5787 5789 5791 5792 5794 5795 5796 5797 5798 5799 5799 5800 5801 5802 5802 5802 5802 5801 5801 5800 5800 5799 5798 5797
5726 5729 5732 5735 5738 5741 5744 5747 5750 5753 5756 5758 5761 5763 5766 5768 5771 5773 5775 5776 5777 5779 5781 5783 5784 5786 5787 5788 5789 5790 5791 5792 5793 5794 5794 5794 5794 5794 5794 5793 5792 5792 5791 5790
5717 5720 5723 5726 5729 5732 5735 5738 5740 5743 5746 5748 5751 5753 5756 5758 5761 5763 5764 5766 5767 5770 5772 5773 5775 5776 5778 5779 5780 5781 5782 5783 5784 5785 5786 5786 5786 5786 5786 5785 5785 5784 5783 5782
5709 5712 5714 5717 5720 5722 5725 5728 5731 5733 5735 5738 5740 5743 5745 5748 5750 5752 5754 5756 5758 5760 5762 5764 5765 5767 5769 5770 5772 5773 5774 5775 5776 5777 5778 5778 5778 5778 5778 5778 5777 5776 5776 5775
5701 5704 5706 5709 5711 5713 5715 5718 5720 5723 5725 5728 5730 5733 5735 5737 5739 5741 5743 5746 5748 5750 5752 5754 5756 5758 5760 5761 5763 5764 5765 5766 5768 5769 5769 5770 5770 5770 5770 5770 5769 5769 5768 5766
5694 5696 5698 5701 5703 5705 5707 5710 5712 5714 5716 5718 5721 5723 5725 5727 5729 5731 5733 5736 5739 5740 5742 5745 5747 5749 5750 5752 5753 5755 5756 5758 5759 5760 5761 5762 5762 5762 5762 5762 5761 5760 5759 5758
5687 5689 5691 5693 5695 5697 5699 5702 5704 5705 5707 5710 5712 5714 5716 5718 5720 5722 5725 5727 5729 5732 5734 5736 5737 5739 5741 5742 5744 5746 5748 5749 5750 5752 5753 5754 5754 5754 5754 5753 5753 5752 5751 5750
5681 5682 5684 5686 5688 5690 5692 5693 5695 5697 5699 5701 5703 5706 5708 5710 5712 5714 5716 5719 5721 5723 5725 5727 5728 5729 5731 5733 5735 5737 5739 5741 5742 5744 5745 5745 5746 5746 5745 5745 5744 5743 5742 5741
5674 5676 5677 5679 5680 5682 5684 5685 5687 5689 5691 5693 5695 5697 5700 5702 5704 5706 5709 5711 5713 5715 5717 5718 5720 5721 5722 5724 5726 5729 5731 5733 5734 5735 5736 5737 5737 5737 5737 5736 5736 5735 5734 5733
5668 5670 5671 5672 5673 5675 5676 5678 5680 5681 5683 5685 5688 5690 5692 5694 5697 5699 5701 5703 5706 5707 5709 5710 5712 5713 5715 5717 5719 5721 5723 5725 5726 5727 5728 5728 5729 5729 5728 5728 5727 5726 5725 5724
5662 5663 5665 5666 5667 5669 5670 5672 5673 5675 5677 5679 5681 5683 5686 5688 5690 5692 5695 5697 5699 5700 5702 5703 5705 5707 5709 5711 5713 5714 5716 5718 5719 5720 5720 5720 5720 5720 5720 5719 5719 5718 5716 5715